Voltar ao catálogo

STARLINK-36749

AtivoComunicaçõesSSO
NORAD 67734·PAYLOAD·🇺🇸 United States

Lançado Feb 11, 2026 de Vandenberg Space Force Base

Loading…

Próximas Passagens (próximas 24 horas)

TLE

AtualizadoSource: CelesTrak SupGP

Época: Sep 14, 2026, 20:58 UTC

1 67734C 26026P   26257.87409722 -.00017822  00000+0 -55332-3 0  2573
2 67734  97.2853 309.7926 0000923 113.8785  80.1472 15.33444059    17

Acompanhe STARLINK-36749 em tempo real com AllMySat

Download on the App Store